Wind_Speed
40 39 38 41 39 40 42 42 48 49 46 44 40 36 33 30 27 24 21 19 17 15
39 38 37 39 41 40 37 38 45 51 49 45 43 39 36 33 30 27 24 20 18 16
40 38 36 38 40 41 39 41 45 49 49 47 44 41 39 36 31 29 25 22 20 17
35 36 34 37 39 42 42 45 46 48 48 50 48 44 41 38 34 30 27 23 21 18
36 35 36 36 38 41 42 44 46 46 47 48 49 47 44 40 36 34 30 27 24 21
34 35 36 34 36 39 40 42 43 45 47 46 48 49 46 42 39 35 32 29 26 23
34 34 34 33 36 38 41 42 43 44 44 47 48 48 46 42 38 35 31 28 24 22
30 32 34 33 36 39 40 42 43 42 41 44 45 46 45 42 39 36 31 27 24 21
28 29 29 31 36 36 37 39 41 41 43 44 41 42 45 44 41 36 33 30 24 21
29 30 30 33 34 33 35 37 38 38 40 41 39 38 40 43 40 36 34 30 27 22
28 30 31 32 31 33 34 36 36 37 40 37 36 34 34 34 38 35 31 28 25 23
22 26 29 31 31 30 31 28 30 35 39 36 32 34 35 33 36 33 29 26 23 21
18 26 29 31 32 33 35 33 34 34 35 32 32 34 34 32 35 31 29 24 20 17
16 24 28 30 31 33 31 31 29 28 29 28 34 32 30 26 32 32 29 26 21 18
Wind_Direction
193 192 191 190 192 193 195 197 201 203 202 201 201 199 199 198 199 196 196 197 201 202
193 194 194 193 195 196 198 198 201 202 203 201 201 200 199 199 197 197 196 197 200 200
196 197 194 193 193 195 198 198 202 201 203 202 202 201 200 200 199 196 194 196 199 199
197 198 196 195 194 197 199 201 203 201 201 204 203 202 201 202 197 195 194 195 200 200
198 197 197 194 194 196 198 201 204 202 202 202 204 203 203 200 198 197 194 196 197 200
199 198 197 194 193 193 196 198 201 200 200 201 204 206 206 204 201 199 199 199 199 199
201 199 195 192 191 190 194 194 198 199 200 203 206 207 206 203 201 201 200 201 204 203
202 200 194 191 189 190 191 194 198 196 199 203 205 205 205 203 202 199 197 199 202 206
193 194 193 188 185 187 187 188 193 194 198 201 201 201 206 205 200 197 195 194 196 199
189 188 189 187 183 184 182 182 188 191 196 200 200 196 198 203 199 194 194 193 192 192
191 189 188 180 180 180 179 180 183 189 200 200 200 187 180 188 195 194 193 194 193 192
193 186 183 175 173 172 170 172 178 190 199 197 190 180 175 180 187 188 187 188 186 188
200 188 182 179 174 175 179 176 186 193 200 195 178 176 172 183 178 173 176 178 179 185
208 191 187 181 179 175 169 173 177 177 185 176 175 171 172 171 173 169 167 170 172 177
Height
735 740 746 752 760 764 770 775 781 788 793 799 805 811 815 818 822 823 827 831 835 839
728 735 739 746 753 759 766 771 776 782 787 793 800 804 810 813 816 819 822 827 833 836
722 729 733 739 745 751 759 765 771 777 781 789 794 799 804 809 812 815 819 823 830 833
716 723 729 733 739 745 752 758 763 770 776 783 788 794 798 804 808 812 815 821 827 830
710 716 723 727 732 739 745 752 757 764 772 777 782 788 792 797 803 807 810 817 821 825
704 709 715 720 727 732 739 745 752 758 764 770 776 782 788 792 797 803 807 812 816 821
697 702 708 714 720 725 733 739 745 751 757 763 770 776 783 788 793 799 804 809 815 818
693 698 703 707 714 721 726 732 738 745 753 758 763 770 775 783 787 795 800 806 811 816
688 693 698 702 710 716 720 726 733 740 746 751 756 764 769 777 781 790 795 802 807 812
683 687 693 698 706 711 718 724 728 736 742 747 753 758 764 771 778 785 792 797 803 808
683 685 691 695 702 708 714 718 724 731 739 744 750 756 762 768 774 783 790 795 799 803
682 684 688 693 699 705 711 718 723 729 734 741 748 754 760 765 771 781 788 792 797 801
683 683 686 691 696 701 707 713 721 727 733 739 745 752 757 762 769 777 784 791 795 800
683 682 686 689 694 700 706 713 721 727 733 739 744 751 757 762 766 772 780 787 792 798